| time (UTC) | temp F | wind direction | speed knots | gust knots | rain 1hr in | rain 24hr in | rain mn in | humidity % | barometer mb |
| 20260906090515 | 58 | 180 | 1.7 | 3.5 | 0.00 | 0.00 | 0.00 | 52 | 1029.1 |
| 20260906085516 | 59 | 180 | 0.9 | 2.6 | 0.00 | 0.00 | 0.00 | 52 | 1029.8 |
| 20260906084536 | 59 | 180 | 2.6 | 6.1 | 0.00 | 0.00 | 0.00 | 51 | 1029.7 |
| 20260906083515 | 59 | 203 | 1.7 | 3.5 | 0.00 | 0.00 | 0.00 | 53 | 1029.7 |
| 20260906082516 | 59 | 203 | 2.6 | 3.5 | 0.00 | 0.00 | 0.00 | 52 | 1029.7 |
| 20260906081517 | 59 | 180 | 2.6 | 3.5 | 0.00 | 0.00 | 0.00 | 53 | 1029.8 |
| 20260906080517 | 59 | 180 | 0.9 | 1.7 | 0.00 | 0.00 | 0.00 | 54 | 1030.5 |
| 20260906075517 | 58 | 225 | 0.9 | 2.6 | 0.00 | 0.00 | 0.00 | 55 | 1030.1 |
| 20260906074517 | 58 | 180 | 2.6 | 3.5 | 0.00 | 0.00 | 0.00 | 56 | 1030.1 |
| 20260906073517 | 57 | 180 | 2.6 | 5.2 | 0.00 | 0.00 | 0.00 | 58 | 1029.5 |
| 20260906072517 | 56 | 180 | 2.6 | 6.1 | 0.00 | 0.00 | 0.00 | 62 | 1029.6 |
| 20260906071517 | 55 | 180 | 2.6 | 4.3 | 0.00 | 0.00 | 0.00 | 65 | 1029.1 |
| 20260906070517 | 55 | 180 | 1.7 | 2.6 | 0.00 | 0.00 | 0.00 | 67 | 1029.1 |
| 20260906065557 | 55 | 180 | 1.7 | 3.5 | 0.00 | 0.00 | 0.00 | 68 | 1029.3 |
| 20260906064517 | 55 | 203 | 1.7 | 3.5 | 0.00 | 0.00 | 0.00 | 68 | 1029.3 |
| 20260906063537 | 56 | 180 | 0.9 | 2.6 | 0.00 | 0.00 | 0.00 | 65 | 1029.9 |
| 20260906062517 | 57 | 180 | 1.7 | 2.6 | 0.00 | 0.00 | 0.00 | 62 | 1029.9 |
| 20260906061537 | 57 | 180 | 1.7 | 2.6 | 0.00 | 0.00 | 0.00 | 61 | 1030.0 |
| 20260906060517 | 57 | 180 | 1.7 | 2.6 | 0.00 | 0.00 | 0.00 | 61 | 1030.1 |
| 20260906055515 | 57 | 203 | 0.9 | 2.6 | 0.00 | 0.00 | 0.00 | 61 | 1030.2 |
| 20260906054515 | 58 | 203 | 1.7 | 2.6 | 0.00 | 0.00 | 0.00 | 60 | 1030.2 |
| 20260906053535 | 58 | 203 | 1.7 | 2.6 | 0.00 | 0.00 | 0.00 | 59 | 1030.3 |
| 20260906052516 | 58 | 203 | 2.6 | 6.1 | 0.00 | 0.00 | 0.00 | 59 | 1030.5 |
| 20260906051515 | 58 | 180 | 2.6 | 5.2 | 0.00 | 0.00 | 0.00 | 59 | 1030.6 |
| 20260906050515 | 58 | 203 | 1.7 | 6.1 | 0.00 | 0.00 | 0.00 | 59 | 1029.9 |
| 20260906045615 | 58 | 180 | 2.6 | 6.1 | 0.00 | 0.00 | 0.00 | 60 | 1029.9 |
| 20260906044515 | 58 | 225 | 6.1 | 10.4 | 0.00 | 0.00 | 0.00 | 60 | 1030.1 |
| 20260906043515 | 58 | 225 | 7.0 | 12.2 | 0.00 | 0.00 | 0.00 | 60 | 1029.3 |
| 20260906042515 | 58 | 203 | 3.5 | 9.6 | 0.00 | 0.00 | 0.00 | 59 | 1029.2 |
| 20260906041515 | 58 | 203 | 3.5 | 7.8 | 0.00 | 0.00 | 0.00 | 58 | 1029.1 |
| 20260906040535 | 58 | 225 | 2.6 | 9.6 | 0.00 | 0.00 | 0.00 | 61 | 1028.6 |
| 20260906035515 | 57 | 225 | 5.2 | 9.6 | 0.00 | 0.00 | 0.00 | 63 | 1028.7 |
| 20260906034537 | 57 | 225 | 4.3 | 8.7 | 0.00 | 0.00 | 0.00 | 65 | 1028.2 |
| 20260906033537 | 57 | 225 | 2.6 | 7.0 | 0.00 | 0.00 | 0.00 | 62 | 1028.0 |
| 20260906032517 | 58 | 225 | 6.1 | 10.4 | 0.00 | 0.00 | 0.00 | 59 | 1028.5 |
| 20260906031517 | 59 | 203 | 4.3 | 7.8 | 0.00 | 0.00 | 0.00 | 54 | 1028.2 |
| 20260906030517 | 60 | 180 | 3.5 | 7.0 | 0.00 | 0.00 | 0.00 | 51 | 1027.5 |
| 20260906025517 | 59 | 180 | 0.9 | 1.7 | 0.00 | 0.00 | 0.00 | 53 | 1026.6 |
| 20260906024537 | 59 | 180 | 0.9 | 1.7 | 0.00 | 0.00 | 0.00 | 54 | 1026.5 |
| 20260906023517 | 59 | 23 | 0.9 | 1.7 | 0.00 | 0.00 | 0.00 | 50 | 1025.6 |
| 20260906022517 | 59 | 0 | 1.7 | 3.5 | 0.00 | 0.00 | 0.00 | 52 | 1025.5 |
| 20260906021517 | 59 | 23 | 1.7 | 3.5 | 0.00 | 0.00 | 0.00 | 52 | 1025.4 |
| 20260906020517 | 59 | 68 | 2.6 | 3.5 | 0.00 | 0.00 | 0.00 | 52 | 1025.4 |
| 20260906015517 | 60 | 45 | 1.7 | 4.3 | 0.00 | 0.00 | 0.00 | 52 | 1025.5 |
| 20260906014517 | 60 | 23 | 2.6 | 7.0 | 0.00 | 0.00 | 0.00 | 52 | 1025.6 |
| 20260906013517 | 61 | 23 | 2.6 | 6.1 | 0.00 | 0.00 | 0.00 | 53 | 1025.5 |
| 20260906012517 | 61 | 0 | 5.2 | 17.4 | 0.00 | 0.00 | 0.00 | 51 | 1025.5 |
| 20260906011517 | 62 | 293 | 6.1 | 14.8 | 0.00 | 0.00 | 0.00 | 48 | 1026.7 |
| 20260906010517 | 63 | 338 | 0.9 | 3.5 | 0.00 | 0.00 | 0.00 | 45 | 1026.4 |
| 20260906005516 | 64 | 0 | 2.6 | 7.0 | 0.00 | 0.00 | 0.00 | 48 | 1026.8 |
| 20260906004516 | 64 | 23 | 2.6 | 6.1 | 0.00 | 0.00 | 0.00 | 43 | 1026.7 |
| 20260906003517 | 65 | 0 | 3.5 | 8.7 | 0.00 | 0.00 | 0.00 | 43 | 1026.8 |
| 20260906002516 | 66 | 23 | 3.5 | 8.7 | 0.00 | 0.00 | 0.00 | 44 | 1027.4 |
| 20260906001517 | 67 | 23 | 2.6 | 6.1 | 0.00 | 0.00 | 0.00 | 42 | 1027.3 |
| 20260906000536 | 69 | 0 | 3.5 | 9.6 | 0.00 | 0.00 | 0.00 | 40 | 1028.3 |
| 20260905235516 | 68 | 293 | 5.2 | 10.4 | 0.00 | 0.00 | 0.00 | 39 | 1027.8 |
| 20260905234516 | 67 | 338 | 5.2 | 11.3 | 0.00 | 0.00 | 0.00 | 40 | 1027.3 |
| 20260905233516 | 70 | 0 | 2.6 | 7.0 | 0.00 | 0.00 | 0.00 | 36 | 1027.8 |
| 20260905232517 | 71 | 0 | 3.5 | 7.8 | 0.00 | 0.00 | 0.00 | 34 | 1028.2 |
| 20260905231516 | 73 | 0 | 0.9 | 6.1 | 0.00 | 0.00 | 0.00 | 32 | 1029.0 |
| 20260905230516 | 71 | 23 | 0.9 | 4.3 | 0.00 | 0.00 | 0.00 | 34 | 1028.3 |
| 20260905225517 | 70 | 68 | 0.9 | 2.6 | 0.00 | 0.00 | 0.00 | 35 | 1027.7 |
| 20260905224537 | 70 | 68 | 1.7 | 4.3 | 0.00 | 0.00 | 0.00 | 35 | 1027.6 |
| 20260905223516 | 70 | 23 | 1.7 | 5.2 | 0.00 | 0.00 | 0.00 | 35 | 1027.6 |
| 20260905222516 | 70 | 23 | 0.9 | 4.3 | 0.00 | 0.00 | 0.00 | 36 | 1027.7 |
| 20260905221516 | 71 | 45 | 3.5 | 7.0 | 0.00 | 0.00 | 0.00 | 34 | 1028.2 |
| 20260905220516 | 71 | 45 | 1.7 | 7.8 | 0.00 | 0.00 | 0.00 | 34 | 1028.3 |
| 20260905215516 | 72 | 23 | 2.6 | 8.7 | 0.00 | 0.00 | 0.00 | 33 | 1029.0 |
| 20260905214516 | 72 | 23 | 3.5 | 9.6 | 0.00 | 0.00 | 0.00 | 33 | 1028.4 |
| 20260905213516 | 72 | 0 | 0.9 | 5.2 | 0.00 | 0.00 | 0.00 | 34 | 1029.1 |
| 20260905212516 | 72 | 23 | 2.6 | 7.8 | 0.00 | 0.00 | 0.00 | 33 | 1029.1 |
| 20260905211516 | 73 | 23 | 2.6 | 10.4 | 0.00 | 0.00 | 0.00 | 32 | 1029.2 |
| 20260905210556 | 73 | 23 | 3.5 | 10.4 | 0.00 | 0.00 | 0.00 | 35 | 1028.9 |
| 20260905205516 | 71 | 0 | 2.6 | 8.7 | 0.00 | 0.00 | 0.00 | 35 | 1028.8 |
| 20260905204516 | 71 | 45 | 1.7 | 6.1 | 0.00 | 0.00 | 0.00 | 35 | 1029.0 |
| 20260905203516 | 71 | 68 | 2.6 | 6.1 | 0.00 | 0.00 | 0.00 | 35 | 1028.9 |
| 20260905202516 | 71 | 68 | 2.6 | 10.4 | 0.00 | 0.00 | 0.00 | 36 | 1029.0 |
| 20260905201516 | 71 | 23 | 1.7 | 4.3 | 0.00 | 0.00 | 0.00 | 35 | 1029.0 |
| 20260905200536 | 71 | 23 | 1.7 | 5.2 | 0.00 | 0.00 | 0.00 | 36 | 1029.1 |
| 20260905195516 | 71 | 68 | 2.6 | 7.0 | 0.00 | 0.00 | 0.00 | 35 | 1029.1 |
| 20260905194516 | 72 | 68 | 3.5 | 7.8 | 0.00 | 0.00 | 0.00 | 33 | 1029.9 |
| 20260905193516 | 73 | 23 | 1.7 | 5.2 | 0.00 | 0.00 | 0.00 | 33 | 1029.8 |
| 20260905192516 | 73 | 45 | 1.7 | 5.2 | 0.00 | 0.00 | 0.00 | 34 | 1029.8 |
| 20260905191516 | 72 | 23 | 4.3 | 9.6 | 0.00 | 0.00 | 0.00 | 35 | 1029.8 |
| 20260905190516 | 71 | 23 | 3.5 | 7.8 | 0.00 | 0.00 | 0.00 | 36 | 1029.3 |
| 20260905185536 | 71 | 23 | 1.7 | 5.2 | 0.00 | 0.00 | 0.00 | 36 | 1029.3 |
| 20260905184516 | 72 | 68 | 2.6 | 7.8 | 0.00 | 0.00 | 0.00 | 35 | 1029.2 |
| 20260905183515 | 72 | 23 | 2.6 | 7.0 | 0.00 | 0.00 | 0.00 | 35 | 1029.3 |
| 20260905182516 | 72 | 45 | 2.6 | 7.8 | 0.00 | 0.00 | 0.00 | 33 | 1029.3 |
| 20260905181516 | 72 | 113 | 1.7 | 6.1 | 0.00 | 0.00 | 0.00 | 32 | 1029.4 |
| 20260905180516 | 72 | 338 | 0.9 | 5.2 | 0.00 | 0.00 | 0.00 | 32 | 1029.9 |
| 20260905175515 | 71 | 0 | 2.6 | 7.0 | 0.00 | 0.00 | 0.00 | 32 | 1029.4 |
| 20260905174516 | 70 | 338 | 3.5 | 7.8 | 0.00 | 0.00 | 0.00 | 32 | 1029.4 |
| 20260905173516 | 72 | 0 | 1.7 | 4.3 | 0.00 | 0.00 | 0.00 | 32 | 1030.4 |
| 20260905172516 | 71 | 338 | 3.5 | 8.7 | 0.00 | 0.00 | 0.00 | 33 | 1029.7 |
| 20260905171516 | 71 | 338 | 3.5 | 8.7 | 0.00 | 0.00 | 0.00 | 33 | 1029.7 |
| 20260905170515 | 71 | 23 | 2.6 | 7.8 | 0.00 | 0.00 | 0.00 | 34 | 1029.6 |
| 20260905165515 | 69 | 68 | 1.7 | 4.3 | 0.00 | 0.00 | 0.00 | 32 | 1029.0 |
| 20260905164515 | 69 | 113 | 0.9 | 3.5 | 0.00 | 0.00 | 0.00 | 32 | 1028.9 |
| 20260905163515 | 69 | 293 | 2.6 | 5.2 | 0.00 | 0.00 | 0.00 | 35 | 1029.7 |
| 20260905162515 | 67 | 270 | 1.7 | 6.1 | 0.00 | 0.00 | 0.00 | 36 | 1028.9 |
| 20260905161515 | 67 | 293 | 4.3 | 9.6 | 0.00 | 0.00 | 0.00 | 36 | 1028.8 |
| 20260905160515 | 66 | 270 | 3.5 | 7.8 | 0.00 | 0.00 | 0.00 | 37 | 1028.8 |
| 20260905155515 | 66 | 270 | 4.3 | 11.3 | 0.00 | 0.00 | 0.00 | 37 | 1029.0 |
| 20260905154538 | 65 | 270 | 5.2 | 9.6 | 0.00 | 0.00 | 0.00 | 37 | 1028.2 |
| 20260905153517 | 65 | 270 | 5.2 | 11.3 | 0.00 | 0.00 | 0.00 | 37 | 1028.4 |
| 20260905152517 | 65 | 248 | 3.5 | 7.8 | 0.00 | 0.00 | 0.00 | 38 | 1028.2 |
| 20260905151517 | 64 | 270 | 4.3 | 11.3 | 0.00 | 0.00 | 0.00 | 39 | 1028.1 |
| 20260905150517 | 64 | 270 | 3.5 | 7.8 | 0.00 | 0.00 | 0.00 | 40 | 1028.2 |
| 20260905145517 | 63 | 270 | 4.3 | 11.3 | 0.00 | 0.00 | 0.00 | 41 | 1027.8 |
| 20260905144517 | 62 | 248 | 4.3 | 12.2 | 0.00 | 0.00 | 0.00 | 42 | 1027.9 |
| 20260905143517 | 62 | 270 | 3.5 | 8.7 | 0.00 | 0.00 | 0.00 | 42 | 1027.9 |
| 20260905142557 | 61 | 248 | 4.3 | 12.2 | 0.00 | 0.00 | 0.00 | 43 | 1027.9 |
| 20260905141517 | 60 | 225 | 2.6 | 7.0 | 0.00 | 0.00 | 0.00 | 44 | 1027.1 |
| 20260905140517 | 60 | 225 | 2.6 | 7.8 | 0.00 | 0.00 | 0.00 | 45 | 1027.8 |
| 20260905135517 | 59 | 225 | 2.6 | 4.3 | 0.00 | 0.00 | 0.00 | 45 | 1027.8 |
| 20260905134517 | 59 | 225 | 2.6 | 7.0 | 0.00 | 0.00 | 0.00 | 45 | 1027.6 |
| 20260905133517 | 58 | 225 | 2.6 | 4.3 | 0.00 | 0.00 | 0.00 | 45 | 1028.2 |
| 20260905132517 | 58 | 225 | 2.6 | 5.2 | 0.00 | 0.00 | 0.00 | 45 | 1028.2 |
| 20260905131517 | 58 | 225 | 3.5 | 7.8 | 0.00 | 0.00 | 0.00 | 44 | 1028.1 |
| 20260905130517 | 58 | 225 | 2.6 | 5.2 | 0.00 | 0.00 | 0.00 | 44 | 1028.7 |
| 20260905125517 | 58 | 225 | 2.6 | 5.2 | 0.00 | 0.00 | 0.00 | 44 | 1028.6 |
| 20260905124517 | 58 | 248 | 1.7 | 7.0 | 0.00 | 0.00 | 0.00 | 44 | 1028.3 |
| 20260905123516 | 58 | 248 | 1.7 | 5.2 | 0.00 | 0.00 | 0.00 | 43 | 1028.4 |
| 20260905122517 | 59 | 270 | 1.7 | 4.3 | 0.00 | 0.00 | 0.00 | 42 | 1028.2 |
| 20260905121517 | 59 | 248 | 1.7 | 4.3 | 0.00 | 0.00 | 0.00 | 42 | 1028.2 |
| 20260905120516 | 59 | 270 | 1.7 | 3.5 | 0.00 | 0.00 | 0.00 | 42 | 1029.4 |
| 20260905115516 | 58 | 270 | 2.6 | 4.3 | 0.00 | 0.00 | 0.00 | 42 | 1029.4 |
| 20260905114516 | 58 | 225 | 1.7 | 3.5 | 0.00 | 0.00 | 0.00 | 42 | 1029.4 |
| 20260905113517 | 59 | 203 | 2.6 | 4.3 | 0.00 | 0.00 | 0.00 | 41 | 1028.8 |
| 20260905112536 | 59 | 248 | 1.7 | 4.3 | 0.00 | 0.00 | 0.00 | 41 | 1028.7 |
| 20260905111536 | 59 | 248 | 0.9 | 3.5 | 0.00 | 0.00 | 0.00 | 42 | 1028.8 |
| 20260905110537 | 59 | 270 | 2.6 | 5.2 | 0.00 | 0.00 | 0.00 | 42 | 1029.2 |
| 20260905105517 | 59 | 270 | 1.7 | 4.3 | 0.00 | 0.00 | 0.00 | 42 | 1029.2 |
| 20260905104536 | 59 | 270 | 2.6 | 4.3 | 0.00 | 0.00 | 0.00 | 42 | 1029.1 |
| 20260905103516 | 59 | 270 | 2.6 | 4.3 | 0.00 | 0.00 | 0.00 | 42 | 1028.5 |
| 20260905102516 | 59 | 248 | 1.7 | 5.2 | 0.00 | 0.00 | 0.00 | 43 | 1028.5 |
| 20260905101516 | 59 | 248 | 1.7 | 3.5 | 0.00 | 0.00 | 0.00 | 44 | 1028.4 |
| 20260905100516 | 59 | 225 | 1.7 | 3.5 | 0.00 | 0.00 | 0.00 | 43 | 1029.0 |
| 20260905095516 | 59 | 270 | 2.6 | 4.3 | 0.00 | 0.00 | 0.00 | 44 | 1029.0 |
| 20260905094516 | 60 | 248 | 1.7 | 2.6 | 0.00 | 0.00 | 0.00 | 44 | 1029.0 |
| 20260905093516 | 60 | 248 | 0.9 | 3.5 | 0.00 | 0.00 | 0.00 | 44 | 1029.6 |
| 20260905092516 | 60 | 270 | 0.9 | 2.6 | 0.00 | 0.00 | 0.00 | 45 | 1029.6 |
| 20260905091516 | 60 | 0.0 | 1.7 | 0.00 | 0.00 | 0.00 | 46 | 1029.6 |